Location: George Washington National Forest Helicopter Landing Site
(38.6463°N, 79.0851°W)
Time: 03:33:30
(UTC-04:00)

Tiros 1 despin weight - Pass Details

Date: 26 August 2019
Orbit: 594 x 642 km, 48.2° (Epoch: 20 September)

Event Time Altitude Azimuth Distance (km) Brightness Sun altitude
Rises 05:37:18 0° 299° (WNW) 2,875 - -12.4°
Exits shadow 05:38:33 - 297° (WNW) 2,394 ? -12.2°
Reaches altitude 10° 05:39:38 10° 294° (WNW) 1,976 ? -12.0°
Maximum altitude 05:44:03 52° 219° (SW) 776 ? -11.2°
Drops below altitude 10° 05:48:31 10° 143° (SE) 1,996 ? -10.4°
Sets 05:50:53 0° 138° (SE) 2,907 ? -9.9°
